• In Netherlands
  • List of Countries
  • For 7 days
  • Water Temperature
  • Satellite Maps
  • Weather Map
  • Weather Widgets
  • user-avatar
    Login

    Hourly Weather Kupnina

    Today, 15 November, Thursday

    Time Temperature Precipitation Wind Pressure Humidity
    00:00 +5°C° 0 mm 2 mps 761 mmHg 96%
    01:00 +5°C° 0 mm 2 mps 762 mmHg 96%
    02:00 +5°C° 0 mm 2 mps 762 mmHg 96%
    03:00 +5°C° 0 mm 2 mps 762 mmHg 96%
    04:00 +5°C° 0 mm 2 mps 762 mmHg 95%
    05:00 +5°C° 0 mm 2 mps 762 mmHg 95%
    06:00 +5°C° 0 mm 2 mps 762 mmHg 94%
    07:00 +6°C° 0 mm 2 mps 763 mmHg 92%
    08:00 +7°C° 0 mm 2 mps 763 mmHg 86%
    09:00 +8°C° 0 mm 2 mps 763 mmHg 80%
    10:00 +8°C° 0 mm 2 mps 764 mmHg 74%
    11:00 +9°C° 0 mm 3 mps 764 mmHg 70%
    12:00 +9°C° 0 mm 3 mps 764 mmHg 65%
    13:00 +10°C° 0 mm 3 mps 764 mmHg 61%
    14:00 +9°C° 0 mm 3 mps 764 mmHg 66%
    15:00 +8°C° 0 mm 3 mps 765 mmHg 72%
    16:00 +7°C° 0 mm 2 mps 765 mmHg 77%
    17:00 +6°C° 0 mm 2 mps 765 mmHg 80%
    18:00 +5°C° 0 mm 3 mps 765 mmHg 82%
    19:00 +4°C° 0 mm 3 mps 766 mmHg 85%
    20:00 +5°C° 0 mm 2 mps 766 mmHg 85%
    21:00 +4°C° 0 mm 2 mps 766 mmHg 86%
    22:00 +4°C° 0 mm 2 mps 767 mmHg 86%
    23:00 +3°C° 0 mm 2 mps 767 mmHg 87%

    Tomorrow, 16 November, Friday

    Time Temperature Precipitation Wind Pressure Humidity
    00:00 +3°C° 0 mm 2 mps 767 mmHg 88%
    01:00 +2°C° 0 mm 2 mps 768 mmHg 89%
    02:00 +2°C° 0 mm 2 mps 768 mmHg 90%
    03:00 +1°C° 0 mm 2 mps 768 mmHg 91%
    04:00 +1°C° 0 mm 2 mps 768 mmHg 91%
    05:00 +1°C° 0 mm 2 mps 769 mmHg 92%
    06:00 +1°C° 0 mm 2 mps 769 mmHg 92%
    07:00 -1°C° 0 mm 2 mps 769 mmHg 93%
    08:00 +1°C° 0 mm 2 mps 769 mmHg 89%
    09:00 +1°C° 0 mm 3 mps 770 mmHg 84%
    10:00 +2°C° 0 mm 3 mps 770 mmHg 80%
    11:00 +3°C° 0 mm 3 mps 770 mmHg 78%
    12:00 +3°C° 0 mm 3 mps 770 mmHg 76%
    13:00 +3°C° 0 mm 3 mps 770 mmHg 74%
    14:00 +4°C° 0 mm 2 mps 770 mmHg 77%
    15:00 +3°C° 0 mm 2 mps 770 mmHg 80%
    16:00 +3°C° 0 mm 2 mps 770 mmHg 84%
    17:00 +2°C° 0 mm 2 mps 770 mmHg 86%
    18:00 +2°C° 0 mm 2 mps 771 mmHg 88%
    19:00 +1°C° 0 mm 2 mps 771 mmHg 91%
    20:00 +1°C° 0 mm 2 mps 771 mmHg 91%
    21:00 +1°C° 0 mm 2 mps 771 mmHg 92%
    22:00 +1°C° 0 mm 2 mps 771 mmHg 93%
    23:00 +1°C° 0 mm 2 mps 771 mmHg 92%

    Day after tomorrow, 17 November, Saturday

    Time Temperature Precipitation Wind Pressure Humidity
    00:00 -1°C° 0 mm 2 mps 771 mmHg 91%
    01:00 -1°C° 0 mm 2 mps 771 mmHg 90%
    02:00 -1°C° 0 mm 2 mps 771 mmHg 88%
    03:00 -1°C° 0 mm 2 mps 771 mmHg 85%
    04:00 -1°C° 0 mm 2 mps 771 mmHg 83%
    05:00 +1°C° 0 mm 1 mps 771 mmHg 80%
    06:00 0°C° 0 mm 1 mps 771 mmHg 77%
    07:00 0°C° 0 mm 1 mps 771 mmHg 73%
    08:00 +2°C° 0 mm 1 mps 771 mmHg 66%
    09:00 +3°C° 0 mm 1 mps 771 mmHg 58%
    10:00 +4°C° 0 mm 1 mps 770 mmHg 50%
    11:00 +4°C° 0 mm 1 mps 770 mmHg 47%
    12:00 +5°C° 0 mm 1 mps 770 mmHg 44%
    13:00 +6°C° 0 mm 1 mps 770 mmHg 41%
    14:00 +5°C° 0 mm 1 mps 769 mmHg 45%
    15:00 +4°C° 0 mm 1 mps 769 mmHg 48%
    16:00 +2°C° 0 mm 0 mps 768 mmHg 52%
    17:00 +3°C° 0 mm 1 mps 768 mmHg 53%
    18:00 +2°C° 0 mm 1 mps 768 mmHg 54%
    19:00 +2°C° 0 mm 1 mps 767 mmHg 55%
    20:00 +2°C° 0 mm 1 mps 767 mmHg 57%
    21:00 +2°C° 0 mm 1 mps 767 mmHg 58%
    22:00 +2°C° 0 mm 1 mps 766 mmHg 60%
    23:00 -1°C° 0 mm 2 mps 766 mmHg 62%

    18 November, Sunday

    Time Temperature Precipitation Wind Pressure Humidity
    00:00 -1°C° 0 mm 2 mps 765 mmHg 65%
    01:00 -1°C° 0 mm 2 mps 764 mmHg 68%
    02:00 0°C° 0 mm 3 mps 764 mmHg 71%
    03:00 0°C° 0 mm 3 mps 763 mmHg 74%
    04:00 0°C° 0 mm 3 mps 762 mmHg 78%
    05:00 0°C° 0 mm 3 mps 761 mmHg 81%
    06:00 +1°C° 0 mm 3 mps 761 mmHg 85%
    07:00 +2°C° 0 mm 3 mps 760 mmHg 88%
    08:00 +1°C° 0.1 mm 4 mps 759 mmHg 89%
    09:00 +3°C° 0.1 mm 4 mps 759 mmHg 89%
    10:00 +3°C° 0.1 mm 4 mps 759 mmHg 90%
    11:00 +3°C° 0.1 mm 4 mps 758 mmHg 88%
    12:00 +4°C° 0.1 mm 4 mps 758 mmHg 86%
    13:00 +4°C° 0.1 mm 4 mps 757 mmHg 83%
    14:00 +4°C° 0.1 mm 4 mps 757 mmHg 85%
    15:00 +3°C° 0.1 mm 4 mps 757 mmHg 87%
    16:00 +3°C° 0.1 mm 4 mps 757 mmHg 89%
    17:00 +3°C° 0.2 mm 4 mps 756 mmHg 88%
    18:00 +3°C° 0.2 mm 4 mps 756 mmHg 86%
    19:00 +3°C° 0.2 mm 4 mps 756 mmHg 85%
    20:00 +2°C° 0.2 mm 5 mps 756 mmHg 85%
    21:00 +2°C° 0.2 mm 5 mps 756 mmHg 85%
    22:00 +2°C° 0.2 mm 5 mps 755 mmHg 84%
    23:00 +2°C° 0.2 mm 5 mps 755 mmHg 84%

    19 November, Monday

    Time Temperature Precipitation Wind Pressure Humidity
    00:00 +2°C° 0.2 mm 5 mps 756 mmHg 83%
    01:00 +2°C° 0.2 mm 5 mps 756 mmHg 83%
    02:00 +1°C° 0 mm 5 mps 755 mmHg 83%
    03:00 +1°C° 0 mm 5 mps 755 mmHg 84%
    04:00 +1°C° 0 mm 5 mps 755 mmHg 84%
    05:00 +1°C° 0 mm 5 mps 755 mmHg 85%
    06:00 +1°C° 0 mm 5 mps 755 mmHg 86%
    07:00 +1°C° 0 mm 4 mps 755 mmHg 86%
    08:00 +1°C° 0.1 mm 4 mps 756 mmHg 85%
    09:00 +1°C° 0.1 mm 4 mps 756 mmHg 84%
    10:00 +2°C° 0.1 mm 5 mps 756 mmHg 82%
    11:00 +3°C° 0.1 mm 4 mps 756 mmHg 81%
    12:00 +3°C° 0.1 mm 4 mps 756 mmHg 79%
    13:00 +3°C° 0.1 mm 4 mps 756 mmHg 78%
    14:00 +3°C° 0.1 mm 4 mps 756 mmHg 79%
    15:00 +3°C° 0.1 mm 4 mps 756 mmHg 80%
    16:00 +1°C° 0.1 mm 4 mps 756 mmHg 81%
    17:00 +1°C° 0 mm 4 mps 756 mmHg 81%
    18:00 +1°C° 0 mm 4 mps 757 mmHg 81%
    19:00 0°C° 0 mm 5 mps 757 mmHg 80%
    20:00 0°C° 0 mm 5 mps 757 mmHg 79%
    21:00 0°C° 0 mm 5 mps 757 mmHg 77%
    22:00 -1°C° 0 mm 5 mps 758 mmHg 76%
    23:00 -1°C° 0 mm 5 mps 758 mmHg 77%

    20 November, Tuesday

    Time Temperature Precipitation Wind Pressure Humidity
    00:00 -2°C° 0 mm 5 mps 758 mmHg 77%
    01:00 -2°C° 0 mm 5 mps 758 mmHg 78%
    02:00 -3°C° 0 mm 6 mps 757 mmHg 76%
    03:00 -3°C° 0 mm 6 mps 757 mmHg 74%
    04:00 -3°C° 0 mm 6 mps 757 mmHg 73%
    05:00 -3°C° 0 mm 6 mps 757 mmHg 72%
    06:00 -3°C° 0 mm 6 mps 757 mmHg 72%
    07:00 -3°C° 0 mm 6 mps 757 mmHg 71%
    08:00 -3°C° 0.2 mm 7 mps 757 mmHg 74%
    09:00 -3°C° 0.2 mm 7 mps 757 mmHg 78%
    10:00 -2°C° 0.2 mm 7 mps 757 mmHg 81%
    11:00 -2°C° 0.1 mm 7 mps 756 mmHg 81%
    12:00 -2°C° 0.1 mm 6 mps 756 mmHg 82%
    13:00 -1°C° 0.1 mm 6 mps 756 mmHg 82%
    14:00 -1°C° 0 mm 6 mps 756 mmHg 83%
    15:00 -1°C° 0 mm 6 mps 755 mmHg 84%
    16:00 -1°C° 0 mm 6 mps 755 mmHg 85%
    17:00 -1°C° 0 mm 6 mps 755 mmHg 85%
    18:00 -1°C° 0 mm 6 mps 755 mmHg 86%
    19:00 -1°C° 0 mm 6 mps 754 mmHg 86%
    20:00 -1°C° 0 mm 6 mps 754 mmHg 86%
    21:00 -1°C° 0 mm 6 mps 754 mmHg 86%
    22:00 -1°C° 0 mm 6 mps 754 mmHg 86%
    23:00 -1°C° 0 mm 6 mps 754 mmHg 85%
    Show more